Regional Weather Roundup
Issued by NWS Newport/Morehead, NC

Current Version | Previous Version | Graphics & Text | Print | Product List | Glossary On
Versions: 1 2 3 4 5 6 7 8 9 10 11 12 13 14 15 16 17 18 19 20 21 22 23 24 25 26 27 28 29 30 31 32 33 34 35 36 37 38 39 40 41 42 43 44 45 46 47 48 49 50
892 ASUS42 KMHX 050625 RWRMHX WEATHER ROUNDUP FOR EASTERN NORTH CAROLINA NATIONAL WEATHER SERVICE NEWPORT/MOREHEAD CITY NC 200 AM EDT THU MAY 05 2016 NOTE: "FAIR" INDICATES FEW OR NO CLOUDS BELOW 12,000 FEET WITH NO SIGNIFICANT WEATHER AND/OR OBSTRUCTIONS TO VISIBILITY NCZ015>017-031-032-045>047-102-103-050700- NORTH COAST CITY SKY/WX TMP DP RH WIND PRES REMARKS EDENTON CLOUDY 58 58 100 NE7 29.62S ELIZABETH CITY CLOUDY 56 54 93 NE9 29.62F KITTY HAWK CLOUDY 55 54 98 NE7 29.60F MANTEO CLOUDY 55 55 100 NE12 29.61F $$ NCZ045>047-081-094-103-104-050700- CENTRAL COAST CITY SKY/WX TMP DP RH WIND PRES REMARKS FRISCO CLOUDY 59 56 89 NE8 29.60F SWANQUARTER NOT AVBL $$ NCZ095-097-098-100-101-050700- SOUTHERN COAST CITY SKY/WX TMP DP RH WIND PRES REMARKS BEAUFORT CLOUDY 64 62 93 NE12 29.57F CEDAR ISLAND NOT AVBL JACKSONVILLE CLOUDY 65 63 93 E10 29.56F PINEY ISLAND NOT AVBL WILMINGTON CLOUDY 63 57 81 NW7 29.57F $$ NCZ011>013-027>030-043-044-078>080-089-090>093-098-050700- COASTAL PLAIN CITY SKY/WX TMP DP RH WIND PRES REMARKS AHOSKIE CLOUDY 55 54 94 E6 29.62F CLINTON PTCLDY 60 59 96 CALM 29.59F ELIZABETHTOWN MOCLDY 62 57 84 CALM 29.59F GOLDSBORO CLOUDY 62 62 100 CALM 29.57S GREENVILLE CLOUDY 61 61 100 E7 29.63S HAVELOCK CLOUDY 64 62 93 E8 29.59F KENANSVILLE CLOUDY 58 57 96 CALM 29.59F KINSTON CLOUDY 63 62 96 E5 29.60R NEW BERN CLOUDY 62 61 96 E7 29.59F FOG RICHLANDS CLOUDY 61 60 97 CALM 29.59S ROCKY MOUNT PTCLDY 59 58 96 NE6 29.59S WASHINGTON CLOUDY 59 58 95 E6 29.60S FOG WHITEVILLE NOT AVBL $$ AMZ130-135-150-152-154-156-158-170-250-252-270-ANZ085-086-088-633-658-670-050700- MARINE OBSERVATIONS STATION/POSITION TIME TEMP WIND PRES WAVE SWELL AIR SEA DIR/SP/G HT/PER HT/PER (UTC) (F) (DEG/KT/KT) (MB) (FT/S) (FT/S) CHESAPEAKE LIGHT 0600 51 30/ 15/ 16 1003.8 64 E VA BEACH 0550 52 54 10/ 12/ 14 1002.1 4/ 7 3/ 7 DUCK 0600 53 60 20/ 12/ 15 1002.3 2 E DUCK 0511 59 N/A 3/ 6 OREGON INLET 0600 56 64 20/ 10/ 15 1002.2 13E OREGON INLT 0600 58 N/A 4/ 7 3/ 7 HATTERAS CG 0600 60 70 40/ 9/ 14 1001.6 DIAMOND BUOY 0550 61 70 20/ 19/ 21 1001.7 4/ 7 CAPE LOOKOUT 0600 63 50/ 19/ 21 1001.0 BEAUFORT LAB 0600 64 68 50/ 6/ 12 1000.5 30 SE NEW RVR IN 0525 71 N/A 4/ 6 27 SE WRIGHTSVLE 0608 71 72 20/ 6/ 10 1000.5 5 SE WRIGHTSVLE 0608 67 69 10/ 8/ 12 1001.7 225 S CAPE HAT 0550 71 73 170/ 14/ 17 1002.1 6/ 6 3/10 41 SE CHARLESTON 0550 71 74 320/ 19/ 21 1002.0 3/ 4 2/ 9 $$

USA.gov is the U.S. government's official web portal to all federal, state and local government web resources and services.